Orbital Elements
Epoch 1999 May 22.0 TT = JDT 2451320.5
T 1999 May 6.38801 TT Sato
q 1.1345160 (2000.0) P Q
n 0.13032701 Peri. 333.36818 +0.96908138 -0.17060931
a 3.8528293 Node 37.83406 +0.24407697 +0.76871398
e 0.7055369 Incl. 16.89433 -0.03616226 +0.61641811
P 7.56
From 41 observations 1991 Nov. 3-2006 Oct. 27, mean residual 1".09.
|